Weather in Letny-2

Russia / Republic of Karelia     64°16′21″N   34°13′22″E
temp.,
°C
wind,
m/s
gust,
m/s
humid.,
%
clouds,
%
prec.,
mm/h
press.,
hPa
HPBL,
m
6 august, fri
fri600:00+11ssw118176 0.0 101912
03:00+10ssw118153 0.0 101910
06:00+11sw017634 0.0 102018
09:00+17ese11555 0.0 1020470
12:00+20ese224458 0.0 10202024
15:00+18ene235191 0.0 1020649
18:00+19ene33440 0.0 10201339
21:00+12ene366827 0.0 1020100
7 august, sat
sat700:00+9ne25755 0.0 102186
03:00+9ne24861 0.0 102163
06:00+10ne25800 0.0 1022141
09:00+17e46550 0.0 1021502
12:00+20e56400 0.0 10211619
15:00+21e56412 0.0 10201672
18:00+20ene57485 0.0 10191508
21:00+14ene41166100 0.0 1020307
8 august, sun
sun800:00+13e41370100 0.0 1020342
03:00+13e41370100 0.0 1019399
06:00+14e41468100 0.0 1018508
09:00+16e51358100 0.0 1018797
12:00+15e51364100 0.0 1018862
15:00+15e61364100 0.0 10181083
18:00+12e61386100 0.1 1018769
21:00+12e51089100 0.3 1018660
9 august, mon
mon900:00+12ene3793100 0.1 1018459
03:00+11ene3695100 0.1 1018341
06:00+12ene2696100 0.0 1018309
09:00+13e2490100 0.1 1017433
12:00+16e2277100 0.0 1018724
15:00+18ese2370100 0.0 1018916
18:00+16ene2479100 0.0 1018360
21:00+15ene3687100 0.0 1018254
10 august, tue
tue1000:00+14e269397 0.0 1018207
03:00+12e279956 0.0 1017173
06:00+14e399495 0.0 1016266
09:00+16se3692100 1.4 1016500
12:00+18s3591100 0.2 1016524
15:00+21sw246814 0.3 1016976
18:00+22sw34626 0.2 1016754
21:00+17sse228599 0.5 101727